• In France
  • List of Countries
  • For 7 days
  • Water Temperature
  • Satellite Maps
  • Weather Map
  • Weather Widgets
  • user-avatar
    Login

    Hourly Weather Ngo

    Today, 14 December, Thursday

    Time Temperature Precipitation Wind Pressure Humidity
    00:00 +25°C° 0 mm 1 mps 709 mmHg 79%
    01:00 +24°C° 0 mm 2 mps 709 mmHg 83%
    02:00 +24°C° 0.1 mm 2 mps 709 mmHg 84%
    03:00 +24°C° 0.1 mm 2 mps 709 mmHg 85%
    04:00 +24°C° 0.1 mm 2 mps 709 mmHg 87%
    05:00 +24°C° 0.9 mm 2 mps 709 mmHg 88%
    06:00 +24°C° 0.9 mm 2 mps 710 mmHg 89%
    07:00 +24°C° 0 mm 2 mps 710 mmHg 92%
    08:00 +24°C° 1.5 mm 2 mps 710 mmHg 90%
    09:00 +25°C° 1.5 mm 2 mps 710 mmHg 89%
    10:00 +25°C° 1.5 mm 2 mps 710 mmHg 88%
    11:00 +26°C° 0.3 mm 2 mps 710 mmHg 83%
    12:00 +27°C° 0.3 mm 2 mps 710 mmHg 79%
    13:00 +27°C° 0 mm 3 mps 710 mmHg 79%
    14:00 +27°C° 0.3 mm 3 mps 709 mmHg 77%
    15:00 +28°C° 0.3 mm 3 mps 709 mmHg 76%
    16:00 +28°C° 0.3 mm 2 mps 709 mmHg 74%
    17:00 +27°C° 0.1 mm 2 mps 709 mmHg 79%
    18:00 +26°C° 0.1 mm 1 mps 709 mmHg 83%
    19:00 +24°C° 0.1 mm 1 mps 709 mmHg 88%
    20:00 +24°C° 0 mm 1 mps 709 mmHg 89%
    21:00 +24°C° 0 mm 1 mps 710 mmHg 91%
    22:00 +23°C° 0 mm 1 mps 710 mmHg 92%
    23:00 +23°C° 0 mm 1 mps 710 mmHg 92%

    Tomorrow, 15 December, Friday

    Time Temperature Precipitation Wind Pressure Humidity
    00:00 +23°C° 0 mm 1 mps 709 mmHg 92%
    01:00 +23°C° 0 mm 1 mps 709 mmHg 93%
    02:00 +22°C° 0 mm 1 mps 709 mmHg 93%
    03:00 +22°C° 0 mm 1 mps 708 mmHg 93%
    04:00 +22°C° 0 mm 1 mps 708 mmHg 94%
    05:00 +22°C° 0 mm 1 mps 709 mmHg 91%
    06:00 +23°C° 0 mm 1 mps 709 mmHg 88%
    07:00 +24°C° 0 mm 1 mps 709 mmHg 86%
    08:00 +26°C° 0 mm 1 mps 710 mmHg 75%
    09:00 +28°C° 0 mm 1 mps 710 mmHg 65%
    10:00 +31°C° 0 mm 1 mps 710 mmHg 55%
    11:00 +33°C° 0 mm 1 mps 710 mmHg 50%
    12:00 +34°C° 0 mm 1 mps 709 mmHg 46%
    13:00 +36°C° 0 mm 1 mps 709 mmHg 41%
    14:00 +35°C° 0 mm 1 mps 708 mmHg 42%
    15:00 +34°C° 0 mm 1 mps 707 mmHg 43%
    16:00 +34°C° 0 mm 1 mps 707 mmHg 44%
    17:00 +32°C° 0 mm 1 mps 707 mmHg 48%
    18:00 +30°C° 0 mm 1 mps 707 mmHg 52%
    19:00 +28°C° 0 mm 1 mps 707 mmHg 57%
    20:00 +28°C° 0 mm 1 mps 707 mmHg 58%
    21:00 +26°C° 0 mm 0 mps 708 mmHg 59%
    22:00 +25°C° 0 mm 0 mps 709 mmHg 61%
    23:00 +27°C° 0 mm 1 mps 709 mmHg 63%

    Day after tomorrow, 16 December, Saturday

    Time Temperature Precipitation Wind Pressure Humidity
    00:00 +27°C° 0 mm 1 mps 708 mmHg 65%
    01:00 +26°C° 0 mm 1 mps 708 mmHg 68%
    02:00 +26°C° 0 mm 1 mps 708 mmHg 71%
    03:00 +25°C° 0 mm 2 mps 708 mmHg 74%
    04:00 +25°C° 0 mm 2 mps 708 mmHg 77%
    05:00 +25°C° 0.4 mm 2 mps 708 mmHg 79%
    06:00 +25°C° 0.4 mm 2 mps 709 mmHg 81%
    07:00 +25°C° 0.4 mm 1 mps 709 mmHg 83%
    08:00 +26°C° 0.5 mm 2 mps 709 mmHg 79%
    09:00 +28°C° 0.5 mm 2 mps 710 mmHg 75%
    10:00 +29°C° 0.5 mm 3 mps 710 mmHg 71%
    11:00 +30°C° 0.3 mm 3 mps 709 mmHg 65%
    12:00 +31°C° 0.3 mm 2 mps 709 mmHg 60%
    13:00 +34°C° 0.3 mm 2 mps 708 mmHg 55%
    14:00 +32°C° 0.3 mm 2 mps 707 mmHg 57%
    15:00 +32°C° 0.3 mm 2 mps 707 mmHg 59%
    16:00 +31°C° 0.3 mm 2 mps 706 mmHg 61%
    17:00 +29°C° 0.6 mm 2 mps 707 mmHg 69%
    18:00 +28°C° 0.6 mm 2 mps 707 mmHg 76%
    19:00 +26°C° 0.6 mm 2 mps 708 mmHg 84%
    20:00 +26°C° 0.1 mm 3 mps 708 mmHg 85%
    21:00 +25°C° 0.1 mm 3 mps 709 mmHg 85%
    22:00 +25°C° 0.1 mm 3 mps 709 mmHg 86%
    23:00 +25°C° 0 mm 3 mps 709 mmHg 86%

    17 December, Sunday

    Time Temperature Precipitation Wind Pressure Humidity
    00:00 +25°C° 0 mm 3 mps 708 mmHg 86%
    01:00 +24°C° 0 mm 3 mps 708 mmHg 86%
    02:00 +24°C° 0 mm 3 mps 708 mmHg 88%
    03:00 +24°C° 0 mm 2 mps 708 mmHg 89%
    04:00 +24°C° 0 mm 2 mps 708 mmHg 91%
    05:00 +24°C° 0.6 mm 2 mps 708 mmHg 91%
    06:00 +24°C° 0.6 mm 2 mps 709 mmHg 90%
    07:00 +24°C° 0.6 mm 2 mps 709 mmHg 90%
    08:00 +26°C° 0.3 mm 2 mps 710 mmHg 83%
    09:00 +27°C° 0.3 mm 3 mps 710 mmHg 76%
    10:00 +29°C° 0.3 mm 3 mps 710 mmHg 70%
    11:00 +30°C° 0.2 mm 3 mps 710 mmHg 65%
    12:00 +31°C° 0.2 mm 2 mps 709 mmHg 61%
    13:00 +32°C° 0.2 mm 2 mps 708 mmHg 56%
    14:00 +31°C° 0.8 mm 2 mps 708 mmHg 60%
    15:00 +30°C° 0.8 mm 2 mps 707 mmHg 64%
    16:00 +30°C° 0.8 mm 2 mps 706 mmHg 67%
    17:00 +28°C° 0.3 mm 2 mps 707 mmHg 74%
    18:00 +27°C° 0.3 mm 2 mps 707 mmHg 80%
    19:00 +25°C° 0.3 mm 2 mps 708 mmHg 86%
    20:00 +25°C° 0 mm 2 mps 708 mmHg 87%
    21:00 +24°C° 0 mm 1 mps 709 mmHg 88%
    22:00 +24°C° 0 mm 1 mps 709 mmHg 89%
    23:00 +24°C° 0 mm 1 mps 709 mmHg 89%

    18 December, Monday

    Time Temperature Precipitation Wind Pressure Humidity
    00:00 +24°C° 0 mm 1 mps 709 mmHg 90%
    01:00 +23°C° 0 mm 1 mps 708 mmHg 90%
    02:00 +23°C° 0.1 mm 1 mps 708 mmHg 91%
    03:00 +23°C° 0.1 mm 1 mps 708 mmHg 92%
    04:00 +23°C° 0.1 mm 1 mps 708 mmHg 93%
    05:00 +23°C° 0.1 mm 2 mps 709 mmHg 91%
    06:00 +24°C° 0.1 mm 2 mps 709 mmHg 90%
    07:00 +24°C° 0.1 mm 3 mps 710 mmHg 89%
    08:00 +25°C° 0 mm 3 mps 710 mmHg 83%
    09:00 +27°C° 0 mm 3 mps 710 mmHg 76%
    10:00 +29°C° 0 mm 3 mps 710 mmHg 70%
    11:00 +29°C° 0.8 mm 2 mps 710 mmHg 68%
    12:00 +29°C° 0.8 mm 2 mps 709 mmHg 67%
    13:00 +30°C° 0.8 mm 1 mps 708 mmHg 65%
    14:00 +30°C° 0.1 mm 2 mps 708 mmHg 65%
    15:00 +29°C° 0.1 mm 2 mps 707 mmHg 64%
    16:00 +29°C° 0.1 mm 2 mps 707 mmHg 64%
    17:00 +28°C° 0 mm 2 mps 707 mmHg 69%
    18:00 +27°C° 0 mm 1 mps 707 mmHg 74%
    19:00 +25°C° 0 mm 1 mps 708 mmHg 79%
    20:00 +25°C° 0 mm 1 mps 708 mmHg 80%
    21:00 +25°C° 0 mm 1 mps 709 mmHg 81%
    22:00 +24°C° 0 mm 1 mps 709 mmHg 82%
    23:00 +24°C° 0 mm 1 mps 709 mmHg 83%

    19 December, Tuesday

    Time Temperature Precipitation Wind Pressure Humidity
    00:00 +24°C° 0 mm 1 mps 708 mmHg 83%
    01:00 +24°C° 0 mm 1 mps 708 mmHg 84%
    02:00 +24°C° 0.1 mm 1 mps 708 mmHg 85%
    03:00 +23°C° 0.1 mm 1 mps 708 mmHg 87%
    04:00 +23°C° 0.1 mm 2 mps 708 mmHg 88%
    05:00 +23°C° 0.1 mm 2 mps 708 mmHg 88%
    06:00 +24°C° 0.1 mm 2 mps 709 mmHg 88%
    07:00 +24°C° 0.1 mm 2 mps 709 mmHg 87%
    08:00 +25°C° 0.1 mm 2 mps 710 mmHg 81%
    09:00 +27°C° 0.1 mm 2 mps 710 mmHg 74%
    10:00 +28°C° 0.1 mm 3 mps 710 mmHg 68%
    11:00 +29°C° 0.4 mm 2 mps 710 mmHg 64%
    12:00 +30°C° 0.4 mm 2 mps 709 mmHg 60%
    13:00 +31°C° 0.4 mm 2 mps 708 mmHg 56%
    14:00 +30°C° 0.5 mm 2 mps 708 mmHg 59%
    15:00 +30°C° 0.5 mm 2 mps 707 mmHg 61%
    16:00 +29°C° 0.5 mm 2 mps 707 mmHg 64%
    17:00 +28°C° 0.1 mm 2 mps 707 mmHg 71%
    18:00 +26°C° 0.1 mm 2 mps 707 mmHg 77%
    19:00 +25°C° 0.1 mm 2 mps 708 mmHg 84%
    20:00 +24°C° 0 mm 2 mps 708 mmHg 85%
    21:00 +24°C° 0 mm 2 mps 708 mmHg 86%
    22:00 +23°C° 0 mm 2 mps 709 mmHg 87%
    23:00 +23°C° 0 mm 2 mps 708 mmHg 87%
    Show more